Location: Oroua River
(40.4333°S, 175.4333°E)
Time: 14:52:15
(UTC+00:00)

Cosmos 1464 Rocket - Pass Details

Date: 03 February 2023
Orbit: 952 x 1001 km, 82.9° (Epoch: 22 March)

Event Time Altitude Azimuth Distance (km) Brightness Sun altitude
Exits shadow 15:43:31 13° 1° (N) 2,535 5.8 -17.8°
Maximum altitude 15:49:16 78° 86° (E) 1,019 4.1 -17.0°
Drops below altitude 10° 15:55:40 10° 170° (S) 2,788 7.1 -16.1°
Sets 15:58:13 0° 171° (S) 3,749 7.8 -15.7°
